#timestamp,LO_Frequency,Hit,StdDev 
1642510815.7,286046994.9,Y
1642510835.5,286046997.3,P
1642510855.3,286046997.5,P
1642510875.2,286046997.1,P
1642510895.9,286046997.2,Y
1642510915.7,286047001.0,P
1642510935.6,286047002.8,N
1642510955.4,286047000.4,N
1642510975.3,286046998.8,N
1642510995.1,286046998.8,N
1642510996.0,286046998.8,N
1642511015.8,286046997.0,N
1642511035.7,286046996.5,N
1642511055.5,286046998.6,N
1642511075.3,286046998.4,N
1642511095.2,286046996.9,N
1642511115.0,286046997.2,N
1642511115.9,286046997.2,N
1642511135.8,286046997.1,N
1642511155.6,286047001.2,N
1642511175.4,286046998.4,N
1642511195.3,286047004.4,N
1642511215.1,286047002.7,N
1642511235.9,286046999.9,N
1642511255.7,286047002.4,N
1642511275.5,286047001.8,N
1642511295.4,286047004.0,N
1642511315.2,286047005.4,N
1642511335.0,286047005.9,N
1642511335.9,286047005.9,N
1642511355.8,286047007.3,N
1642511375.6,286047008.6,N
1642511395.5,286047008.3,N
1642511415.3,286047007.2,N
1642511435.1,286047005.7,N
1642511455.9,286047005.2,N
1642511475.7,286047003.2,N
1642511495.5,286047004.1,N
1642511515.4,286047003.1,N
1642511535.2,286047005.5,N
1642511555.1,286047006.0,N
1642511556.0,286047006.0,N
1642511575.8,286047003.4,N
1642511595.6,286047006.0,N
1642511615.5,286047003.5,N
1642511635.3,286047003.8,N
1642511655.2,286047011.9,Y
1642511675.9,286047002.2,P
1642511695.7,286047002.3,P
1642511715.6,286046999.9,N
1642511735.4,286047000.3,N
1642511755.2,286047000.8,N
1642511775.1,286047000.3,N
1642511776.0,286047000.3,N
1642511795.8,286046998.1,N
1642511815.7,286047000.9,N
1642511835.5,286047002.8,N
1642511855.3,286047003.1,N
1642511875.2,286047001.7,N
1642511895.0,286047003.5,N
1642511895.9,286047003.5,N
1642511915.7,286047003.8,N
1642511935.6,286047003.7,N
1642511955.4,286047002.2,N
1642511975.3,286047000.9,N
1642511995.1,286047000.0,N
1642511996.0,286047000.0,N
1642512015.8,286047002.4,N
1642512035.7,286047003.3,N
1642512055.5,286047005.8,Y
1642512075.3,286047000.0,P
1642512095.2,286047001.0,N
1642512115.0,286047004.1,P
1642512115.9,286047004.1,N
1642512135.8,286047007.0,Y
1642512155.6,286047006.1,P
1642512175.4,286047005.3,N
1642512195.3,286047001.5,N
1642512215.1,286047002.5,N
1642512235.9,286047004.2,N
1642512255.7,286047002.1,N
1642512275.5,286047002.3,N
1642512295.4,286047002.4,N
1642512315.2,286047001.7,N
1642512335.0,286047001.3,N
1642512335.9,286047001.3,N
1642512355.8,286047000.4,N
1642512375.6,286046999.9,N
1642512395.5,286047001.6,N
1642512415.3,286047003.1,N
1642512435.1,286047004.4,N
1642512455.9,286047004.0,N
1642512475.7,286047002.5,N
1642512495.5,286047001.1,N
1642512515.4,286046998.7,N
1642512535.2,286047000.0,N
1642512555.1,286047001.2,N
1642512556.0,286047001.2,N
1642512575.8,286046998.5,N
1642512595.6,286047000.5,N
1642512615.5,286047000.8,N
1642512635.3,286046999.8,N
1642512655.1,286047000.9,N
1642512675.9,286047004.3,N
1642512695.7,286047000.2,N
1642512715.6,286047002.4,N
1642512735.4,286046999.8,N
1642512755.2,286047000.2,N
1642512775.1,286047001.1,N
1642512776.0,286047001.1,N
1642512795.8,286047001.2,N
1642512815.6,286046996.9,N
1642512835.5,286046998.6,N
1642512855.3,286046998.4,N
1642512875.2,286047002.6,N
1642512895.9,286047004.4,N
1642512915.7,286047003.9,N
1642512935.6,286047002.4,N
1642512955.4,286047003.2,N
1642512975.2,286047003.0,N
1642512995.1,286046999.8,N
1642512996.0,286046999.8,N
1642513015.8,286047002.8,N
1642513035.7,286047003.6,N
1642513055.5,286047005.3,N
1642513075.3,286047003.3,N
1642513095.2,286047005.1,N
1642513115.0,286047005.1,N
1642513115.9,286047005.1,N
1642513135.7,286047004.0,N
1642513155.6,286046999.7,N
1642513175.4,286047001.5,N
1642513195.3,286047001.4,N
1642513215.1,286047004.0,N
1642513216.0,286047004.0,N
1642513235.8,286047002.5,N
1642513255.7,286047002.1,N
1642513275.5,286047003.5,N
1642513295.4,286047007.1,Y
1642513315.2,286047004.0,P
1642513335.0,286047000.6,N
1642513335.9,286047000.6,N
1642513355.8,286047001.7,N
1642513375.6,286047002.9,N
1642513395.4,286047003.1,N
1642513415.3,286047002.3,N
1642513435.1,286047000.4,N
1642513455.9,286046999.3,N
1642513475.7,286046998.9,N
1642513495.5,286046997.8,N
1642513515.4,286046996.7,N
1642513535.2,286046997.8,N
1642513555.0,286046997.2,N
1642513555.9,286046997.2,N
1642513575.8,286046998.6,N
1642513595.6,286046999.2,N
1642513615.5,286046996.6,N
1642513635.3,286046997.8,N
1642513655.1,286046993.3,N
1642513675.9,286046996.2,N
1642513695.7,286046997.9,N
1642513715.5,286046993.9,N
1642513735.4,286046997.0,N
1642513755.2,286046997.4,N
1642513775.1,286046996.8,N
1642513776.0,286046996.8,N
1642513795.8,286046995.5,N
1642513815.6,286046991.7,Y
1642513835.5,286046993.5,P
1642513855.3,286046992.1,P
1642513875.2,286046994.8,N
1642513895.9,286046992.9,N
1642513915.7,286046992.5,Y
1642513935.6,286046996.5,P
1642513955.4,286046997.1,N
1642513975.2,286046996.9,N
1642513995.1,286046997.1,N
1642513996.0,286046997.1,N
1642514015.8,286046999.4,N
1642514035.7,286046999.3,N
1642514055.5,286046999.6,N
1642514075.3,286046999.1,N
1642514095.2,286046998.2,N
1642514115.9,286047001.2,N
1642514135.7,286047002.7,N
1642514155.6,286047002.3,N
1642514175.4,286046999.8,N
1642514195.2,286047000.7,N
1642514215.1,286046999.1,N
1642514216.0,286046999.1,N
1642514235.8,286046999.2,N
1642514255.7,286046997.1,N
1642514275.5,286046999.6,N
1642514295.3,286046998.4,N
1642514315.2,286046998.6,N
1642514335.0,286046999.0,N
1642514335.9,286046999.0,N
1642514355.8,286046999.6,N
1642514375.6,286046998.4,N
1642514395.4,286046996.9,N
